Time,TemperatureF,DewpointF,PressureIn,WindDirection,WindDirectionDegrees,WindSpeedMPH,WindSpeedGustMPH,Humidity,HourlyPrecipIn,Conditions,Clouds,dailyrainin,SoftwareType,DateUTC
2013-11-24 00:00:00,20.6,17.9,29.88,WNW,293,7.0,7.0,89,0.00,,,0.00,Wunderground v.1.15,2013-11-24 05:00:00,
2013-11-24 00:10:00,20.5,18.0,29.88,West,260,4.0,4.0,90,0.00,,,0.00,Wunderground v.1.15,2013-11-24 05:10:00,
2013-11-24 00:20:00,20.2,17.5,29.88,WSW,245,2.0,2.0,89,0.00,,,0.00,Wunderground v.1.15,2013-11-24 05:20:00,
2013-11-24 00:30:00,19.7,16.5,29.88,SSW,213,0.0,0.0,87,0.00,,,0.00,Wunderground v.1.15,2013-11-24 05:30:00,
2013-11-24 00:40:00,19.4,14.5,29.88,SSE,164,1.0,1.0,81,0.00,,,0.00,Wunderground v.1.15,2013-11-24 05:40:00,
2013-11-24 00:50:00,19.5,13.5,29.88,SW,226,2.0,2.0,77,0.00,,,0.00,Wunderground v.1.15,2013-11-24 05:50:00,
2013-11-24 01:00:00,19.5,12.9,29.89,SW,230,1.0,3.0,75,0.00,,,0.00,Wunderground v.1.15,2013-11-24 06:00:00,
2013-11-24 01:10:00,19.7,11.5,29.89,West,268,4.0,17.0,70,0.00,,,0.00,Wunderground v.1.15,2013-11-24 06:10:00,
2013-11-24 01:20:00,19.9,11.0,29.90,WSW,257,7.0,17.0,68,0.00,,,0.00,Wunderground v.1.15,2013-11-24 06:20:00,
2013-11-24 01:30:00,19.7,9.1,29.91,West,261,10.0,17.0,63,0.00,,,0.00,Wunderground v.1.15,2013-11-24 06:30:00,
2013-11-24 01:40:00,19.2,9.4,29.91,West,263,8.0,8.0,65,0.00,,,0.00,Wunderground v.1.15,2013-11-24 06:40:00,
2013-11-24 01:50:00,18.8,8.3,29.91,WNW,289,7.0,17.0,63,0.00,,,0.00,Wunderground v.1.15,2013-11-24 06:50:00,
2013-11-24 02:00:00,18.6,6.6,29.92,WNW,289,8.0,8.0,59,0.00,,,0.00,Wunderground v.1.15,2013-11-24 07:00:00,
2013-11-24 02:10:00,18.4,6.4,29.92,WSW,239,6.0,6.0,59,0.00,,,0.00,Wunderground v.1.15,2013-11-24 07:10:00,
2013-11-24 02:20:00,18.3,5.6,29.92,WSW,253,5.0,5.0,57,0.00,,,0.00,Wunderground v.1.15,2013-11-24 07:20:00,
2013-11-24 02:30:00,18.1,5.4,29.93,West,266,5.0,5.0,57,0.00,,,0.00,Wunderground v.1.15,2013-11-24 07:30:00,
2013-11-24 02:40:00,18.0,5.3,29.93,West,270,4.0,17.0,57,0.00,,,0.00,Wunderground v.1.15,2013-11-24 07:40:00,
2013-11-24 02:50:00,17.7,5.4,29.92,WSW,256,4.0,17.0,58,0.00,,,0.00,Wunderground v.1.15,2013-11-24 07:50:00,
2013-11-24 03:00:00,17.5,4.8,29.92,WSW,243,4.0,4.0,57,0.00,,,0.00,Wunderground v.1.15,2013-11-24 08:00:00,
2013-11-24 03:10:00,17.3,4.3,29.92,WSW,256,4.0,17.0,56,0.00,,,0.00,Wunderground v.1.15,2013-11-24 08:10:00,
2013-11-24 03:20:00,17.3,4.7,29.93,West,281,4.0,4.0,57,0.00,,,0.00,Wunderground v.1.15,2013-11-24 08:20:00,
2013-11-24 03:30:00,17.3,5.0,29.93,SW,224,5.0,5.0,58,0.00,,,0.00,Wunderground v.1.15,2013-11-24 08:30:00,
2013-11-24 03:40:00,17.2,4.6,29.93,SW,236,5.0,5.0,57,0.00,,,0.00,Wunderground v.1.15,2013-11-24 08:40:00,
2013-11-24 03:50:00,16.9,4.7,29.93,WSW,257,4.0,17.0,58,0.00,,,0.00,Wunderground v.1.15,2013-11-24 08:50:00,
2013-11-24 04:00:00,16.9,5.0,29.93,West,262,5.0,5.0,59,0.00,,,0.00,Wunderground v.1.15,2013-11-24 09:00:00,
2013-11-24 04:10:00,16.7,4.8,29.93,WSW,243,3.0,17.0,59,0.00,,,0.00,Wunderground v.1.15,2013-11-24 09:10:00,
2013-11-24 04:20:00,16.4,3.4,29.95,WSW,251,8.0,8.0,56,0.00,,,0.00,Wunderground v.1.15,2013-11-24 09:20:00,
2013-11-24 04:30:00,15.9,3.3,29.95,WSW,256,6.0,6.0,57,0.00,,,0.00,Wunderground v.1.15,2013-11-24 09:30:00,
2013-11-24 04:40:00,15.9,3.3,29.95,West,280,4.0,4.0,57,0.00,,,0.00,Wunderground v.1.15,2013-11-24 09:40:00,
2013-11-24 04:50:00,15.7,3.1,29.96,WSW,243,4.0,4.0,57,0.00,,,0.00,Wunderground v.1.15,2013-11-24 09:50:00,
2013-11-24 05:00:00,15.2,2.7,29.97,West,278,5.0,17.0,57,0.00,,,0.00,Wunderground v.1.15,2013-11-24 10:00:00,
2013-11-24 05:10:00,14.9,2.8,29.97,West,262,6.0,17.0,58,0.00,,,0.00,Wunderground v.1.15,2013-11-24 10:10:00,
2013-11-24 05:20:00,14.6,2.5,29.97,West,276,6.0,17.0,58,0.00,,,0.00,Wunderground v.1.15,2013-11-24 10:20:00,
2013-11-24 05:30:00,14.3,2.2,29.97,WSW,242,6.0,6.0,58,0.00,,,0.00,Wunderground v.1.15,2013-11-24 10:30:00,
2013-11-24 05:40:00,14.1,2.0,29.97,West,261,5.0,5.0,58,0.00,,,0.00,Wunderground v.1.15,2013-11-24 10:40:00,
2013-11-24 05:50:00,13.8,1.7,29.98,West,265,5.0,17.0,58,0.00,,,0.00,Wunderground v.1.15,2013-11-24 10:50:00,
2013-11-24 06:00:00,13.5,1.4,29.99,SW,235,6.0,6.0,58,0.00,,,0.00,Wunderground v.1.15,2013-11-24 11:00:00,
2013-11-24 06:10:00,13.3,1.6,29.99,WSW,241,5.0,5.0,59,0.00,,,0.00,Wunderground v.1.15,2013-11-24 11:10:00,
2013-11-24 06:20:00,13.1,0.7,30.00,West,265,5.0,5.0,57,0.00,,,0.00,Wunderground v.1.15,2013-11-24 11:20:00,
2013-11-24 06:30:00,12.8,0.8,30.01,West,268,3.0,3.0,58,0.00,,,0.00,Wunderground v.1.15,2013-11-24 11:30:00,
2013-11-24 06:40:00,12.6,0.6,30.01,WSW,255,3.0,3.0,58,0.00,,,0.00,Wunderground v.1.15,2013-11-24 11:40:00,
2013-11-24 06:50:00,12.4,1.1,30.01,WNW,283,4.0,4.0,60,0.00,,,0.00,Wunderground v.1.15,2013-11-24 11:50:00,
2013-11-24 07:00:00,12.3,0.3,30.01,SSE,154,4.0,4.0,58,0.00,,,0.00,Wunderground v.1.15,2013-11-24 12:00:00,
2013-11-24 07:10:00,12.1,0.5,30.01,WSW,247,2.0,15.0,59,0.00,,,0.00,Wunderground v.1.15,2013-11-24 12:10:00,
2013-11-24 07:20:00,12.3,0.3,30.03,SW,236,5.0,5.0,58,0.00,,,0.00,Wunderground v.1.15,2013-11-24 12:20:00,
2013-11-24 07:30:00,11.9,-0.1,30.03,WSW,245,5.0,5.0,58,0.00,,,0.00,Wunderground v.1.15,2013-11-24 12:30:00,
2013-11-24 07:40:00,11.7,0.1,30.03,WSW,254,3.0,15.0,59,0.00,,,0.00,Wunderground v.1.15,2013-11-24 12:40:00,
2013-11-24 07:50:00,11.9,-0.1,30.04,West,277,5.0,15.0,58,0.00,,,0.00,Wunderground v.1.15,2013-11-24 12:50:00,
2013-11-24 08:00:00,12.1,0.5,30.05,West,262,6.0,6.0,59,0.00,,,0.00,Wunderground v.1.15,2013-11-24 13:00:00,
2013-11-24 08:10:00,12.3,0.3,30.05,WSW,249,6.0,6.0,58,0.00,,,0.00,Wunderground v.1.15,2013-11-24 13:10:00,
2013-11-24 08:20:00,12.4,0.4,30.05,West,261,5.0,5.0,58,0.00,,,0.00,Wunderground v.1.15,2013-11-24 13:20:00,
2013-11-24 08:30:00,12.6,0.6,30.06,West,270,4.0,4.0,58,0.00,,,0.00,Wunderground v.1.15,2013-11-24 13:30:00,
2013-11-24 08:40:00,13.1,1.1,30.06,SW,224,3.0,15.0,58,0.00,,,0.00,Wunderground v.1.15,2013-11-24 13:40:00,
2013-11-24 08:50:00,13.5,1.1,30.06,WNW,297,4.0,15.0,57,0.00,,,0.00,Wunderground v.1.15,2013-11-24 13:50:00,
2013-11-24 09:00:00,14.0,1.5,30.07,WSW,255,5.0,5.0,57,0.00,,,0.00,Wunderground v.1.15,2013-11-24 14:00:00,
2013-11-24 09:10:00,14.4,2.3,30.07,SW,235,3.0,15.0,58,0.00,,,0.00,Wunderground v.1.15,2013-11-24 14:10:00,
2013-11-24 09:20:00,15.1,2.2,30.07,WSW,247,4.0,15.0,56,0.00,,,0.00,Wunderground v.1.15,2013-11-24 14:20:00,
2013-11-24 09:30:00,15.2,1.5,30.08,West,262,5.0,15.0,54,0.00,,,0.00,Wunderground v.1.15,2013-11-24 14:30:00,
2013-11-24 09:40:00,15.7,2.0,30.08,West,262,5.0,5.0,54,0.00,,,0.00,Wunderground v.1.15,2013-11-24 14:40:00,
2013-11-24 09:50:00,15.9,1.8,30.08,SW,230,4.0,15.0,53,0.00,,,0.00,Wunderground v.1.15,2013-11-24 14:50:00,
2013-11-24 10:00:00,16.2,1.2,30.08,West,268,6.0,6.0,51,0.00,,,0.00,Wunderground v.1.15,2013-11-24 15:00:00,
2013-11-24 10:10:00,16.5,1.9,30.08,SW,224,5.0,5.0,52,0.00,,,0.00,Wunderground v.1.15,2013-11-24 15:10:00,
2013-11-24 10:20:00,17.2,1.7,30.08,WNW,282,4.0,15.0,50,0.00,,,0.00,Wunderground v.1.15,2013-11-24 15:20:00,
2013-11-24 10:30:00,17.5,1.1,30.08,West,260,8.0,8.0,48,0.00,,,0.00,Wunderground v.1.15,2013-11-24 15:30:00,
2013-11-24 10:40:00,18.1,1.7,30.08,WNW,295,8.0,8.0,48,0.00,,,0.00,Wunderground v.1.15,2013-11-24 15:40:00,
2013-11-24 10:50:00,18.6,1.2,30.08,WNW,283,9.0,9.0,46,0.00,,,0.00,Wunderground v.1.15,2013-11-24 15:50:00,
2013-11-24 11:00:00,19.1,-0.3,30.09,West,271,8.0,8.0,42,0.00,,,0.00,Wunderground v.1.15,2013-11-24 16:00:00,
2013-11-24 11:10:00,19.4,1.5,30.09,West,273,7.0,15.0,45,0.00,,,0.00,Wunderground v.1.15,2013-11-24 16:10:00,
2013-11-24 11:20:00,19.2,0.8,30.09,SW,236,7.0,15.0,44,0.00,,,0.00,Wunderground v.1.15,2013-11-24 16:20:00,
2013-11-24 11:30:00,19.5,0.6,30.10,SW,215,8.0,15.0,43,0.00,,,0.00,Wunderground v.1.15,2013-11-24 16:30:00,
2013-11-24 11:40:00,19.7,1.8,30.10,WNW,291,9.0,9.0,45,0.00,,,0.00,Wunderground v.1.15,2013-11-24 16:40:00,
2013-11-24 11:50:00,20.2,1.2,30.10,West,277,8.0,15.0,43,0.00,,,0.00,Wunderground v.1.15,2013-11-24 16:50:00,
2013-11-24 12:00:00,20.3,0.8,30.10,WSW,256,8.0,15.0,42,0.00,,,0.00,Wunderground v.1.15,2013-11-24 17:00:00,
2013-11-24 12:10:00,20.6,0.6,30.10,SW,229,8.0,8.0,41,0.00,,,0.00,Wunderground v.1.15,2013-11-24 17:10:00,
2013-11-24 12:20:00,20.6,0.6,30.10,West,263,8.0,16.0,41,0.00,,,0.00,Wunderground v.1.15,2013-11-24 17:20:00,
2013-11-24 12:30:00,20.6,2.1,30.10,WSW,244,10.0,10.0,44,0.00,,,0.00,Wunderground v.1.15,2013-11-24 17:30:00,
2013-11-24 12:40:00,20.6,0.1,30.10,WNW,295,9.0,9.0,40,0.00,,,0.00,Wunderground v.1.15,2013-11-24 17:40:00,
2013-11-24 12:50:00,20.6,0.1,30.10,West,270,9.0,9.0,40,0.00,,,0.00,Wunderground v.1.15,2013-11-24 17:50:00,
2013-11-24 13:00:00,21.0,-0.7,30.10,SW,234,9.0,11.0,38,0.00,,,0.00,Wunderground v.1.15,2013-11-24 18:00:00,
2013-11-24 13:10:00,21.1,3.0,30.10,SW,230,9.0,9.0,45,0.00,,,0.00,Wunderground v.1.15,2013-11-24 18:10:00,
2013-11-24 13:20:00,21.1,1.6,30.11,SW,231,7.0,17.0,42,0.00,,,0.00,Wunderground v.1.15,2013-11-24 18:20:00,
2013-11-24 13:30:00,20.8,1.3,30.11,SW,233,8.0,8.0,42,0.00,,,0.00,Wunderground v.1.15,2013-11-24 18:30:00,
2013-11-24 13:40:00,21.4,1.3,30.11,WSW,253,8.0,17.0,41,0.00,,,0.00,Wunderground v.1.15,2013-11-24 18:40:00,
2013-11-24 13:50:00,21.3,-0.4,30.12,WNW,289,11.0,11.0,38,0.00,,,0.00,Wunderground v.1.15,2013-11-24 18:50:00,
2013-11-24 14:00:00,21.3,0.1,30.12,WNW,283,10.0,17.0,39,0.00,,,0.00,Wunderground v.1.15,2013-11-24 19:00:00,
2013-11-24 14:10:00,20.6,1.1,30.12,West,264,13.0,13.0,42,0.00,,,0.00,Wunderground v.1.15,2013-11-24 19:10:00,
2013-11-24 14:20:00,20.8,-0.9,30.13,West,262,11.0,18.0,38,0.00,,,0.00,Wunderground v.1.15,2013-11-24 19:20:00,
2013-11-24 14:30:00,20.8,-1.4,30.13,WNW,293,15.0,15.0,37,0.00,,,0.00,Wunderground v.1.15,2013-11-24 19:30:00,
2013-11-24 14:40:00,21.0,0.9,30.13,West,280,12.0,12.0,41,0.00,,,0.00,Wunderground v.1.15,2013-11-24 19:40:00,
2013-11-24 14:50:00,21.0,-0.1,30.15,WSW,239,7.0,7.0,39,0.00,,,0.00,Wunderground v.1.15,2013-11-24 19:50:00,
2013-11-24 15:00:00,20.6,0.6,30.15,West,268,9.0,17.0,41,0.00,,,0.00,Wunderground v.1.15,2013-11-24 20:00:00,
2013-11-24 15:10:00,20.5,1.5,30.15,WSW,254,9.0,9.0,43,0.00,,,0.00,Wunderground v.1.15,2013-11-24 20:10:00,
2013-11-24 15:20:00,20.0,1.1,30.16,SSW,193,7.0,7.0,43,0.00,,,0.00,Wunderground v.1.15,2013-11-24 20:20:00,
2013-11-24 15:30:00,19.9,1.0,30.17,West,264,7.0,17.0,43,0.00,,,0.00,Wunderground v.1.15,2013-11-24 20:30:00,
2013-11-24 15:40:00,19.9,1.5,30.17,WSW,237,6.0,6.0,44,0.00,,,0.00,Wunderground v.1.15,2013-11-24 20:40:00,
2013-11-24 15:50:00,19.7,0.8,30.18,West,270,9.0,17.0,43,0.00,,,0.00,Wunderground v.1.15,2013-11-24 20:50:00,
2013-11-24 16:00:00,19.4,-1.0,30.18,WNW,286,11.0,11.0,40,0.00,,,0.00,Wunderground v.1.15,2013-11-24 21:00:00,
2013-11-24 16:10:00,19.4,-0.5,30.18,West,275,11.0,17.0,41,0.00,,,0.00,Wunderground v.1.15,2013-11-24 21:10:00,
2013-11-24 16:20:00,19.2,-0.7,30.18,WNW,293,10.0,17.0,41,0.00,,,0.00,Wunderground v.1.15,2013-11-24 21:20:00,
2013-11-24 16:30:00,19.2,-0.2,30.19,West,274,11.0,11.0,42,0.00,,,0.00,Wunderground v.1.15,2013-11-24 21:30:00,
2013-11-24 16:40:00,18.9,0.5,30.19,West,261,7.0,17.0,44,0.00,,,0.00,Wunderground v.1.15,2013-11-24 21:40:00,
2013-11-24 16:50:00,18.6,-0.2,30.20,WSW,243,5.0,5.0,43,0.00,,,0.00,Wunderground v.1.15,2013-11-24 21:50:00,
2013-11-24 17:00:00,18.4,0.1,30.20,SW,233,6.0,6.0,44,0.00,,,0.00,Wunderground v.1.15,2013-11-24 22:00:00,
2013-11-24 17:10:00,18.3,0.5,30.20,WSW,243,6.0,6.0,45,0.00,,,0.00,Wunderground v.1.15,2013-11-24 22:10:00,
2013-11-24 17:20:00,18.6,0.3,30.21,SW,230,7.0,17.0,44,0.00,,,0.00,Wunderground v.1.15,2013-11-24 22:20:00,
2013-11-24 17:30:00,18.3,0.0,30.21,WSW,243,7.0,17.0,44,0.00,,,0.00,Wunderground v.1.15,2013-11-24 22:30:00,
2013-11-24 17:40:00,18.1,-0.7,30.21,WSW,255,6.0,17.0,43,0.00,,,0.00,Wunderground v.1.15,2013-11-24 22:40:00,
2013-11-24 17:50:00,18.1,-0.7,30.22,WSW,248,9.0,18.0,43,0.00,,,0.00,Wunderground v.1.15,2013-11-24 22:50:00,
2013-11-24 18:00:00,17.8,-0.5,30.23,West,260,9.0,9.0,44,0.00,,,0.00,Wunderground v.1.15,2013-11-24 23:00:00,
2013-11-24 18:10:00,17.8,-1.5,30.23,West,281,11.0,11.0,42,0.00,,,0.00,Wunderground v.1.15,2013-11-24 23:10:00,
2013-11-24 18:20:00,17.8,-1.5,30.23,West,266,10.0,10.0,42,0.00,,,0.00,Wunderground v.1.15,2013-11-24 23:20:00,
2013-11-24 18:30:00,17.5,-1.2,30.24,WSW,253,7.0,7.0,43,0.00,,,0.00,Wunderground v.1.15,2013-11-24 23:30:00,
2013-11-24 18:40:00,17.3,-0.9,30.24,West,264,5.0,5.0,44,0.00,,,0.00,Wunderground v.1.15,2013-11-24 23:40:00,
2013-11-24 18:50:00,17.0,-1.7,30.25,West,281,6.0,10.0,43,0.00,,,0.00,Wunderground v.1.15,2013-11-24 23:50:00,
2013-11-24 19:00:00,16.9,-0.8,30.25,WSW,243,6.0,6.0,45,0.00,,,0.00,Wunderground v.1.15,2013-11-25 00:00:00,
2013-11-24 19:10:00,16.2,-0.5,30.25,WNW,291,2.0,21.0,47,0.00,,,0.00,Wunderground v.1.15,2013-11-25 00:10:00,
2013-11-24 19:20:00,16.4,-0.8,30.26,WSW,243,4.0,21.0,46,0.00,,,0.00,Wunderground v.1.15,2013-11-25 00:20:00,
2013-11-24 19:30:00,16.4,-1.7,30.26,WNW,296,6.0,6.0,44,0.00,,,0.00,Wunderground v.1.15,2013-11-25 00:30:00,
2013-11-24 19:40:00,16.4,-2.2,30.26,WSW,237,7.0,21.0,43,0.00,,,0.00,Wunderground v.1.15,2013-11-25 00:40:00,
2013-11-24 19:50:00,16.7,-2.0,30.27,WSW,256,10.0,10.0,43,0.00,,,0.00,Wunderground v.1.15,2013-11-25 00:50:00,
2013-11-24 20:00:00,16.4,-1.3,30.27,WNW,287,9.0,9.0,45,0.00,,,0.00,Wunderground v.1.15,2013-11-25 01:00:00,
2013-11-24 20:10:00,16.2,-1.5,30.27,WNW,296,8.0,8.0,45,0.00,,,0.00,Wunderground v.1.15,2013-11-25 01:10:00,
2013-11-24 20:20:00,16.4,-1.7,30.27,West,268,10.0,10.0,44,0.00,,,0.00,Wunderground v.1.15,2013-11-25 01:20:00,
2013-11-24 20:30:00,16.1,-1.1,30.27,WSW,251,8.0,8.0,46,0.00,,,0.00,Wunderground v.1.15,2013-11-25 01:30:00,
2013-11-24 20:40:00,15.7,-1.0,30.27,WSW,245,6.0,6.0,47,0.00,,,0.00,Wunderground v.1.15,2013-11-25 01:40:00,
2013-11-24 20:50:00,15.6,-0.6,30.27,WSW,240,5.0,21.0,48,0.00,,,0.00,Wunderground v.1.15,2013-11-25 01:50:00,
2013-11-24 21:00:00,15.2,-0.6,30.27,West,266,6.0,21.0,49,0.00,,,0.00,Wunderground v.1.15,2013-11-25 02:00:00,
2013-11-24 21:10:00,15.2,-1.0,30.27,SW,222,6.0,6.0,48,0.00,,,0.00,Wunderground v.1.15,2013-11-25 02:10:00,
2013-11-24 21:20:00,15.2,-1.0,30.27,SW,222,5.0,5.0,48,0.00,,,0.00,Wunderground v.1.15,2013-11-25 02:20:00,
2013-11-24 21:30:00,15.2,-1.0,30.27,West,266,7.0,7.0,48,0.00,,,0.00,Wunderground v.1.15,2013-11-25 02:30:00,
2013-11-24 21:40:00,14.9,-1.3,30.27,WNW,291,6.0,6.0,48,0.00,,,0.00,Wunderground v.1.15,2013-11-25 02:40:00,
2013-11-24 21:50:00,15.1,-2.0,30.28,West,270,7.0,21.0,46,0.00,,,0.00,Wunderground v.1.15,2013-11-25 02:50:00,
2013-11-24 22:00:00,14.9,-2.2,30.29,West,263,6.0,21.0,46,0.00,,,0.00,Wunderground v.1.15,2013-11-25 03:00:00,
2013-11-24 22:10:00,14.4,-2.2,30.29,SW,224,4.0,21.0,47,0.00,,,0.00,Wunderground v.1.15,2013-11-25 03:10:00,
2013-11-24 22:20:00,14.1,-2.0,30.29,WNW,283,5.0,5.0,48,0.00,,,0.00,Wunderground v.1.15,2013-11-25 03:20:00,
2013-11-24 22:30:00,13.8,-2.3,30.29,West,264,3.0,3.0,48,0.00,,,0.00,Wunderground v.1.15,2013-11-25 03:30:00,
2013-11-24 22:40:00,13.3,-2.8,30.29,West,264,0.0,21.0,48,0.00,,,0.00,Wunderground v.1.15,2013-11-25 03:40:00,
2013-11-24 22:50:00,12.9,-2.7,30.30,West,264,0.0,21.0,49,0.00,,,0.00,Wunderground v.1.15,2013-11-25 03:50:00,
2013-11-24 23:00:00,12.8,-2.4,30.30,WNW,303,1.0,21.0,50,0.00,,,0.00,Wunderground v.1.15,2013-11-25 04:00:00,
2013-11-24 23:10:00,12.6,-2.6,30.30,WSW,241,1.0,21.0,50,0.00,,,0.00,Wunderground v.1.15,2013-11-25 04:10:00,
2013-11-24 23:20:00,13.1,-3.4,30.30,West,262,3.0,21.0,47,0.00,,,0.00,Wunderground v.1.15,2013-11-25 04:20:00,
2013-11-24 23:30:00,13.6,-3.8,30.31,WSW,252,3.0,3.0,45,0.00,,,0.00,Wunderground v.1.15,2013-11-25 04:30:00,
2013-11-24 23:40:00,13.8,-4.6,30.31,WSW,245,3.0,3.0,43,0.00,,,0.00,Wunderground v.1.15,2013-11-25 04:40:00,
2013-11-24 23:50:00,13.6,-4.3,30.31,WSW,241,2.0,21.0,44,0.00,,,0.00,Wunderground v.1.15,2013-11-25 04:50:00,